sat.trackr.live / text

‹ back to catalog

STARLINK-4629

NORAD 53968 · 2022-125E

PAYLOAD ACTIVE UNKNOWN

§ Identity

Operator
Country
US
Launch date
2022-10-05
Launch site
AFWTR
Launch vehicle
Mass (kg)
RCS (m²)

Purposes: comms

External: N2YO · Heavens-Above · Gunter

§ Orbital elements

Epoch: 2026-09-20T22:19:56.167680Z

Period
93.85 min
Inclination
53.1612°
Eccentricity
0.0000966
Mean motion
15.34388765 rev/d
Perigee alt
462.1 km
Apogee alt
463.4 km
Semi-major
6,840.9 km
B*
7.3147e-5
RAAN
59.5013°
Arg perigee
106.8610°
Mean anomaly
253.2499°
Rev number
21,890

§ Raw data

STARLINK-46291 53968U 22125E   26263.93051120  .00002095  00000+0  73147-4 0  99942 53968  53.1612  59.5013 0000966 106.8610 253.2499 15.34388765218901

JSON: /api/v1/satellites/53968 · /tle

For live sub-satellite position, see the globe view (requires WebGL).

§ Visibility from observer

Set your observer location to see the next 7 days of passes ≥ 10°. The values pass through the URL so the page stays shareable.

No JS? Fill the form by hand. The geolocation button needs JavaScript.